User: anonymous   Login
Location: Unspecified
(0.0000°N, 0.0000°E)
Time: 20:17:38
(UTC+00:00)
Language:

Tiangong 1 - Orbit

View from above orbital plane
View from above orbital plane
View from above satellite
View from above satellite

Ground track
Ground track

The orbit data is extracted from the following two-line orbital elements,

1 37820U 11053A   17352.45221635  .00069861  10161-4  17192-3 0  9992
2 37820  42.7530 140.2424 0019916 319.4170 143.8129 15.95389818357225
Epoch (UTC): 18 December 2017 10:51:11
Eccentricity: 0.0019916
inclination: 42.7530°
perigee height: 274 km
apogee height: 300 km
right ascension of ascending node: 140.2424°
argument of perigee: 319.4170°
revolutions per day: 15.95389818
mean anomaly at epoch: 143.8129°
orbit number at epoch: 35722

The dashed part of the orbit path shows where the satellite is in the earth's shadow,  

DLR